Regional Weather Roundup
Issued by NWS

Home | Current Version | Previous Version | Text Only | Print | Product List | Glossary On
Versions: 1 2 3 4 5 6 7 8 9 10 11 12 13 14 15 16 17 18 19 20 21 22 23 24 25 26 27 28 29 30 31 32 33 34 35 36 37 38 39 40 41 42 43 44 45 46 47 48 49 50
469
ASUS45 KTFX 060310
RWRMT
MONTANA REGIONAL WEATHER ROUNDUP
NATIONAL WEATHER SERVICE GREAT FALLS MT
800 PM MST FRI FEB 05 2016

NOTE: "FAIR" INDICATES FEW OR NO CLOUDS BELOW 12000 FEET WITH NO
SIGNIFICANT WEATHER AND/OR OBSTRUCTIONS TO VISIBILITY.

MTZ001>007-043-060400-
WEST OF THE DIVIDE

CITY           SKY/WX    TMP DP  RH WIND       PRES   REMARKS
KALISPELL      MOCLDY    34  30  85 W6        30.18F WCI  29
MISSOULA       MOCLDY    29  24  82 CALM      30.26F
BUTTE          CLOUDY    34  20  56 CALM      30.25F
MULLAN PASS    CLOUDY    29  27  92 VRB7G18   30.14F FOG     WCI  22
ANACONDA         N/A     36  21  55 S8        30.23F WCI  29
DEER LODGE       N/A     28  21  74 CALM      30.23F
HAMILTON         N/A     41  27  56 S12       30.24F
LIBBY            N/A     34  30  86 CALM        N/A
PLAINS           N/A     33  27  79 E1        30.20F
$$

MTZ008-052>055-060400-
SOUTHWEST MONTANA

CITY           SKY/WX    TMP DP  RH WIND       PRES   REMARKS
BOZEMAN        CLOUDY    24  16  71 N6        30.26R WCI  17
DILLON         CLOUDY    24  15  68 SW16      30.28S WCI  11
ENNIS          CLEAR     25  16  68 S21G28    30.37S WCI  10
THREE FORKS      N/A     34   0  23 S25       30.21F WCI  21
TWIN BRIDGES     N/A     26  14  60 E3        30.25S
$$

MTZ009-010-012-014-046-048-049-054-060400-
EAST SLOPES AND CENTRAL MONTANA

CITY           SKY/WX    TMP DP  RH WIND       PRES   REMARKS
CUT BANK       CLOUDY    42  21  43 W31G43    29.94F
GREAT FALLS    CLOUDY    42  23  46 SW25      30.04F
MALMSTROM AFB  CLOUDY    43  24  47 SW26G36   30.06F
HELENA         CLOUDY    36  24  62 SW7       30.19F WCI  30
CHOTEAU          N/A     45  19  36 SW18G28   30.00S
CONRAD           N/A     42  24  49 S3        30.01F
$$

MTZ011-013-016-021-045-047-050-051-060400-
NORTH CENTRAL MONTANA

CITY           SKY/WX    TMP DP  RH WIND       PRES   REMARKS
HAVRE          CLOUDY    40  27  59 SW18      29.97S
LEWISTOWN      CLOUDY    36  23  59 S12       30.05F WCI  28
N BAR RANCH      N/A     32  21  64 VRB5      30.04S
CHINOOK          N/A     46  25  42 SW18      29.94F
$$

MTZ017>020-022>027-061-062-060400-
NORTHEAST MONTANA

CITY           SKY/WX    TMP DP  RH WIND       PRES   REMARKS
GLASGOW        CLOUDY    36  26  67 SW8       29.94F WCI  30
JORDAN           N/A     36  27  69 W8        30.00F WCI  30
SIDNEY         CLEAR     28  21  74 S9        30.00F WCI  20
WOLF POINT     CLOUDY    26  23  88 CALM      29.97F
PLENTYWOOD       N/A     32  25  74 SW3       29.94F
POPLAR           N/A     34  27  75 SW7       29.97F WCI  28
SCOBEY           N/A     32  16  52 CALM      29.91F
$$

MTZ028>42-056>058-060400-
SOUTHCENTRAL AND SOUTHEAST MONTANA

CITY           SKY/WX    TMP DP  RH WIND       PRES   REMARKS
BAKER          CLOUDY    34  20  56 SW12      30.05F WCI  25
BILLINGS       CLEAR     36  12  37 SW22      30.10F WCI  25
LIVINGSTON     CLOUDY    35  16  45 SW37G55   30.17F WCI  21
MILES CITY     CLEAR     36  23  59 SW12      30.05F WCI  28
EKALAKA          N/A     36  19  50 SW7       30.04F WCI  30
FORSYTH          N/A     39  21  48 SW9       30.07F
LAUREL           N/A     34  11  38 SW15      30.09F WCI  24
ROUNDUP          N/A     40  17  39 SW15      29.97S
$$

REGIONAL REPORTS...DAKOTAS

CITY           SKY/WX    TMP DP  RH WIND       PRES   REMARKS
WILLISTON      CLOUDY    25  21  85 SW3       29.98F
MINOT          CLOUDY    32  21  64 SW8       30.00S WCI  25
DICKINSON      CLOUDY    31  22  69 SW13      30.01F WCI  21
BEACH            N/A     32  23  69 SW12      30.06S WCI  23
CROSBY           N/A     25  25 100 S12       29.97F WCI  14
TIOGA            N/A     27  27 100 SW12      30.01F WCI  16
WATFORD CITY     N/A     25  23  93 W5        30.00F
BISMARCK       CLEAR     28  22  78 CALM      30.07F
GRAND FORKS    CLOUDY    18  14  84 S7        30.09F WCI   9
FARGO          CLOUDY    19  15  84 S5        30.13S
BUFFALO SD       N/A     30  21  69 W10       30.02F WCI  21
RAPID CITY     CLEAR     23  18  81 CALM      30.16S
$$

REGIONAL REPORTS...WYOMING/IDAHO/WASHINGTON

CITY           SKY/WX    TMP DP  RH WIND       PRES   REMARKS
GILLETTE       CLOUDY    28  13  53 SW15      30.15F WCI  16
SHERIDAN       CLEAR     27  12  54 S3        30.12F
BUFFALO WY     CLOUDY    26   9  48 SW9       30.15F WCI  17
CODY           CLOUDY    37  14  38 W16G29    30.18F WCI  28
YELLOWSTONE LA   N/A     17  13  84 CALM      30.39F
IDAHO FALLS    LGT SNOW  20  18  92 N5        30.51S FOG
SALMON         CLOUDY    16  10  79 NW6       30.40S WCI   7
BOISE          MOCLDY    36  30  79 SE16      30.43F WCI  26
SPOKANE        CLOUDY    44  34  67 S14       30.13S
$$

REGIONAL REPORTS...ALBERTA

CITY           SKY/WX    TMP DP  RH WIND       PRES   REMARKS
EDMONTON       PTCLDY    34  25  69 SW7       29.56F WCI  28
CALGARY        MOCLDY    41  23  48 CALM      29.75F
LETHBRIDGE     MOCLDY    45  23  42 W14       29.89F
MEDICINE HAT   CLOUDY    43  28  56 SW18G28   29.80F
WATERTON GATE    N/A     43  18  36 W18G33      N/A
CARDSTON         N/A     45  18  33 W21G30      N/A
MILK RIVER       N/A     43  23  45 W16         N/A
ONEFOUR          N/A     41  27  56 SW10        N/A
$$

REGIONAL REPORTS...SASKATCHEWAN

CITY           SKY/WX    TMP DP  RH WIND       PRES   REMARKS
SWIFT CURRENT  PTCLDY    36  28  75 SW17      29.79F WCI  25
REGINA         PTCLDY    23  19  86 SE9       29.87F WCI  13
SASKATOON      MOCLDY    25  21  86 S13       29.73F WCI  13
VAL MARIE        N/A     27  23  86 SW8         N/A  WCI  18
ROCKGLEN         N/A     28  23  80 SW14        N/A  WCI  17
ASSINIBOIA       N/A     25  21  86 S9          N/A  WCI  15
$$




USA.gov is the U.S. government's official web portal to all federal, state and local government web resources and services.